Time,TemperatureF,DewpointF,PressureIn,WindDirection,WindDirectionDegrees,WindSpeedMPH,WindSpeedGustMPH,Humidity,HourlyPrecipIn,Conditions,Clouds,dailyrainin,SoftwareType,DateUTC
2013-01-09 00:00:00,55.8,49.7,30.34,NE,34,0.0,0.0,80,0.00,,---,0.00,VWS V14.01,2013-01-09 05:00:00,
2013-01-09 00:02:00,55.7,49.6,30.34,NE,34,0.0,0.0,80,0.00,,---,0.00,VWS V14.01,2013-01-09 05:02:00,
2013-01-09 00:07:00,55.7,49.6,30.34,NE,34,0.0,0.0,80,0.00,,---,0.00,VWS V14.01,2013-01-09 05:07:00,
2013-01-09 00:12:00,55.7,49.6,30.34,NNE,29,0.0,0.0,80,0.00,,---,0.00,VWS V14.01,2013-01-09 05:12:00,
2013-01-09 00:17:00,55.8,49.7,30.34,NNE,23,0.0,0.0,80,0.00,,---,0.00,VWS V14.01,2013-01-09 05:17:00,
2013-01-09 00:22:00,55.8,49.7,30.34,NNE,22,0.0,0.0,80,0.00,,---,0.00,VWS V14.01,2013-01-09 05:22:00,
2013-01-09 00:27:00,55.7,49.6,30.34,NNE,22,0.0,0.0,80,0.00,,---,0.00,VWS V14.01,2013-01-09 05:27:00,
2013-01-09 00:30:00,55.7,49.6,30.33,NNE,24,0.0,0.0,80,0.00,,---,0.00,VWS V14.01,2013-01-09 05:30:00,
2013-01-09 00:32:00,55.7,49.6,30.33,NNE,24,0.0,0.0,80,0.00,,---,0.00,VWS V14.01,2013-01-09 05:32:00,
2013-01-09 00:37:00,55.9,49.8,30.33,NNE,28,0.0,0.0,80,0.00,,---,0.00,VWS V14.01,2013-01-09 05:37:00,
2013-01-09 00:42:00,55.9,49.8,30.33,NNE,26,0.0,0.0,80,0.00,,---,0.00,VWS V14.01,2013-01-09 05:42:00,
2013-01-09 00:47:00,55.9,49.8,30.32,NNE,24,0.0,0.0,80,0.00,,---,0.00,VWS V14.01,2013-01-09 05:47:00,
2013-01-09 00:52:00,56.0,49.9,30.32,NNE,24,0.0,0.0,80,0.00,,---,0.00,VWS V14.01,2013-01-09 05:52:00,
2013-01-09 00:57:00,56.0,49.9,30.32,NNE,24,0.0,0.0,80,0.00,,---,0.00,VWS V14.01,2013-01-09 05:57:00,
2013-01-09 01:00:00,56.0,49.9,30.32,NNE,24,0.0,0.0,80,0.00,,---,0.00,VWS V14.01,2013-01-09 06:00:00,
2013-01-09 01:02:00,56.0,49.9,30.32,NNE,24,0.0,0.0,80,0.00,,---,0.00,VWS V14.01,2013-01-09 06:02:00,
2013-01-09 01:07:00,56.1,50.0,30.32,NNE,24,0.0,0.0,80,0.00,,---,0.00,VWS V14.01,2013-01-09 06:07:00,
2013-01-09 01:12:00,56.2,50.1,30.32,NNE,24,0.0,0.0,80,0.00,,---,0.00,VWS V14.01,2013-01-09 06:12:00,
2013-01-09 01:17:00,56.2,50.1,30.32,NNE,24,0.0,0.0,80,0.00,,---,0.00,VWS V14.01,2013-01-09 06:17:00,
2013-01-09 01:22:00,56.2,50.1,30.32,NNE,22,0.0,0.0,80,0.00,,---,0.00,VWS V14.01,2013-01-09 06:22:00,
2013-01-09 01:27:00,56.1,50.0,30.31,NNE,22,0.0,0.0,80,0.00,,---,0.00,VWS V14.01,2013-01-09 06:27:00,
2013-01-09 01:30:00,56.0,49.6,30.32,NNE,22,0.0,0.0,79,0.00,,---,0.00,VWS V14.01,2013-01-09 06:30:00,
2013-01-09 01:32:00,55.9,49.5,30.31,NNE,21,0.0,0.0,79,0.00,,---,0.00,VWS V14.01,2013-01-09 06:32:00,
2013-01-09 01:37:00,55.8,49.7,30.32,NNE,21,0.0,0.0,80,0.00,,---,0.00,VWS V14.01,2013-01-09 06:37:00,
2013-01-09 01:42:00,55.6,49.5,30.31,NNE,17,0.0,0.0,80,0.00,,---,0.00,VWS V14.01,2013-01-09 06:42:00,
2013-01-09 01:47:00,55.3,49.2,30.31,NNE,17,0.0,0.0,80,0.00,,---,0.00,VWS V14.01,2013-01-09 06:47:00,
2013-01-09 01:52:00,55.3,49.2,30.32,NNE,14,0.0,0.0,80,0.00,,---,0.00,VWS V14.01,2013-01-09 06:52:00,
2013-01-09 01:57:00,55.2,49.2,30.32,North,5,0.0,0.0,80,0.00,,---,0.00,VWS V14.01,2013-01-09 06:57:00,
2013-01-09 02:00:00,55.2,49.2,30.32,North,360,0.0,0.0,80,0.00,,---,0.00,VWS V14.01,2013-01-09 07:00:00,
2013-01-09 02:02:00,55.2,49.2,30.32,North,360,0.0,0.0,80,0.00,,---,0.00,VWS V14.01,2013-01-09 07:02:00,
2013-01-09 02:07:00,55.0,49.0,30.32,North,360,0.0,0.0,80,0.00,,---,0.00,VWS V14.01,2013-01-09 07:07:00,
2013-01-09 02:12:00,54.8,48.8,30.32,North,360,0.0,0.0,80,0.00,,---,0.00,VWS V14.01,2013-01-09 07:12:00,
2013-01-09 02:17:00,54.6,48.6,30.33,North,360,0.0,0.0,80,0.00,,---,0.00,VWS V14.01,2013-01-09 07:17:00,
2013-01-09 02:22:00,54.6,48.9,30.33,North,360,0.0,0.0,81,0.00,,---,0.00,VWS V14.01,2013-01-09 07:22:00,
2013-01-09 02:27:00,54.5,48.5,30.33,North,360,0.0,0.0,80,0.00,,---,0.00,VWS V14.01,2013-01-09 07:27:00,
2013-01-09 02:30:00,54.5,48.8,30.32,North,355,0.0,0.0,81,0.00,,---,0.00,VWS V14.01,2013-01-09 07:30:00,
2013-01-09 02:32:00,54.6,48.9,30.32,North,355,0.0,0.0,81,0.00,,---,0.00,VWS V14.01,2013-01-09 07:32:00,
2013-01-09 02:37:00,54.6,48.9,30.32,North,355,0.0,0.0,81,0.00,,---,0.00,VWS V14.01,2013-01-09 07:37:00,
2013-01-09 02:42:00,54.8,49.1,30.32,North,351,0.0,0.0,81,0.00,,---,0.00,VWS V14.01,2013-01-09 07:42:00,
2013-01-09 02:47:00,54.9,49.2,30.32,North,355,0.0,0.0,81,0.00,,---,0.00,VWS V14.01,2013-01-09 07:47:00,
2013-01-09 02:52:00,55.1,49.4,30.32,NNW,341,0.0,0.0,81,0.00,,---,0.00,VWS V14.01,2013-01-09 07:52:00,
2013-01-09 02:57:00,55.1,49.4,30.32,NNW,341,0.0,0.0,81,0.00,,---,0.00,VWS V14.01,2013-01-09 07:57:00,
2013-01-09 03:00:00,55.2,49.5,30.32,NNW,341,0.0,0.0,81,0.00,,---,0.00,VWS V14.01,2013-01-09 08:00:00,
2013-01-09 03:02:00,55.2,49.5,30.32,NNW,342,0.0,0.0,81,0.00,,---,0.00,VWS V14.01,2013-01-09 08:02:00,
2013-01-09 03:07:00,55.3,49.6,30.32,NNE,22,0.0,0.0,81,0.00,,---,0.00,VWS V14.01,2013-01-09 08:07:00,
2013-01-09 03:12:00,55.4,49.3,30.32,NNE,18,0.0,0.0,80,0.00,,---,0.00,VWS V14.01,2013-01-09 08:12:00,
2013-01-09 03:17:00,55.5,49.4,30.32,NNE,15,0.0,0.0,80,0.00,,---,0.00,VWS V14.01,2013-01-09 08:17:00,
2013-01-09 03:22:00,55.5,49.4,30.32,NNE,14,0.0,0.0,80,0.00,,---,0.00,VWS V14.01,2013-01-09 08:22:00,
2013-01-09 03:27:00,55.4,49.3,30.32,NNE,14,0.0,0.0,80,0.00,,---,0.00,VWS V14.01,2013-01-09 08:27:00,
2013-01-09 03:30:00,55.5,49.4,30.31,NNE,15,0.0,0.0,80,0.00,,---,0.00,VWS V14.01,2013-01-09 08:30:00,
2013-01-09 03:32:00,55.6,49.5,30.31,NNE,15,0.0,0.0,80,0.00,,---,0.00,VWS V14.01,2013-01-09 08:32:00,
2013-01-09 03:37:00,55.7,49.6,30.32,North,355,0.0,0.0,80,0.00,,---,0.00,VWS V14.01,2013-01-09 08:37:00,
2013-01-09 03:42:00,55.9,49.8,30.32,NNE,24,0.0,0.0,80,0.00,,---,0.00,VWS V14.01,2013-01-09 08:42:00,
2013-01-09 03:47:00,56.2,50.1,30.31,NNE,15,0.0,0.0,80,0.00,,---,0.00,VWS V14.01,2013-01-09 08:47:00,
2013-01-09 03:52:00,56.2,50.1,30.31,NNE,20,0.0,0.0,80,0.00,,---,0.00,VWS V14.01,2013-01-09 08:52:00,
2013-01-09 03:57:00,56.3,50.2,30.31,NNE,19,0.0,0.0,80,0.00,,---,0.00,VWS V14.01,2013-01-09 08:57:00,
2013-01-09 04:00:00,56.3,50.2,30.31,NNE,19,0.0,0.0,80,0.00,,---,0.00,VWS V14.01,2013-01-09 09:00:00,
2013-01-09 04:02:00,56.3,50.2,30.31,NNE,19,0.0,0.0,80,0.00,,---,0.00,VWS V14.01,2013-01-09 09:02:00,
2013-01-09 04:07:00,56.3,50.2,30.31,NNE,19,0.0,0.0,80,0.00,,---,0.00,VWS V14.01,2013-01-09 09:07:00,
2013-01-09 04:12:00,57.1,55.7,30.31,NE,38,0.0,1.0,95,0.00,,---,0.00,VWS V14.01,2013-01-09 09:12:00,
2013-01-09 04:17:00,57.4,51.0,30.31,NNE,32,0.0,1.0,79,0.00,,---,0.00,VWS V14.01,2013-01-09 09:17:00,
2013-01-09 04:22:00,57.7,51.2,30.31,NNE,19,0.0,1.0,79,0.00,,---,0.00,VWS V14.01,2013-01-09 09:22:00,
2013-01-09 04:27:00,57.7,50.9,30.31,NNE,19,0.0,1.0,78,0.00,,---,0.00,VWS V14.01,2013-01-09 09:27:00,
2013-01-09 04:30:00,57.7,50.9,30.31,NNE,25,0.0,1.0,78,0.00,,---,0.00,VWS V14.01,2013-01-09 09:30:00,
2013-01-09 04:32:00,57.7,50.9,30.31,NNE,25,0.0,0.0,78,0.00,,---,0.00,VWS V14.01,2013-01-09 09:32:00,
2013-01-09 04:37:00,57.8,51.0,30.30,NNE,31,0.0,0.0,78,0.00,,---,0.00,VWS V14.01,2013-01-09 09:37:00,
2013-01-09 04:42:00,57.9,51.1,30.30,NNE,31,0.0,0.0,78,0.00,,---,0.00,VWS V14.01,2013-01-09 09:42:00,
2013-01-09 04:46:00,58.0,51.2,30.30,ENE,67,0.0,0.0,78,0.00,,---,0.00,VWS V14.01,2013-01-09 09:46:00,
2013-01-09 04:51:00,58.2,51.4,30.30,NE,47,0.0,0.0,78,0.00,,---,0.00,VWS V14.01,2013-01-09 09:51:00,
2013-01-09 04:56:00,58.5,51.3,30.30,ENE,57,0.0,0.0,77,0.00,,---,0.00,VWS V14.01,2013-01-09 09:56:00,
2013-01-09 05:00:00,58.4,51.2,30.30,NE,45,0.0,0.0,77,0.00,,---,0.00,VWS V14.01,2013-01-09 10:00:00,
2013-01-09 05:01:00,58.4,51.2,30.30,NE,44,0.0,0.0,77,0.00,,---,0.00,VWS V14.01,2013-01-09 10:01:00,
2013-01-09 05:06:00,58.4,51.2,30.31,NE,45,0.0,0.0,77,0.00,,---,0.00,VWS V14.01,2013-01-09 10:06:00,
2013-01-09 05:11:00,58.3,51.1,30.31,NE,41,0.0,0.0,77,0.00,,---,0.00,VWS V14.01,2013-01-09 10:11:00,
2013-01-09 05:16:00,58.4,51.2,30.31,NE,38,0.0,0.0,77,0.00,,---,0.00,VWS V14.01,2013-01-09 10:16:00,
2013-01-09 05:21:00,58.4,51.2,30.31,NNE,33,0.0,0.0,77,0.00,,---,0.00,VWS V14.01,2013-01-09 10:21:00,
2013-01-09 05:26:00,58.5,51.3,30.31,North,360,0.0,0.0,77,0.00,,---,0.00,VWS V14.01,2013-01-09 10:26:00,
2013-01-09 05:30:00,58.6,51.4,30.31,NNE,26,0.0,0.0,77,0.00,,---,0.00,VWS V14.01,2013-01-09 10:30:00,
2013-01-09 05:31:00,58.6,51.4,30.31,NNE,26,0.0,0.0,77,0.00,,---,0.00,VWS V14.01,2013-01-09 10:31:00,
2013-01-09 05:36:00,58.7,51.5,30.31,NNE,26,0.0,0.0,77,0.00,,---,0.00,VWS V14.01,2013-01-09 10:36:00,
2013-01-09 05:41:00,58.7,51.5,30.31,NNE,26,0.0,0.0,77,0.00,,---,0.00,VWS V14.01,2013-01-09 10:41:00,
2013-01-09 05:46:00,58.6,51.4,30.31,NNE,27,0.0,0.0,77,0.00,,---,0.00,VWS V14.01,2013-01-09 10:46:00,
2013-01-09 05:51:00,58.7,51.5,30.31,NNE,20,0.0,0.0,77,0.00,,---,0.00,VWS V14.01,2013-01-09 10:51:00,
2013-01-09 05:56:00,58.7,51.5,30.32,North,360,0.0,0.0,77,0.00,,---,0.00,VWS V14.01,2013-01-09 10:56:00,
2013-01-09 06:00:00,58.7,51.5,30.31,NNW,335,0.0,0.0,77,0.00,,---,0.00,VWS V14.01,2013-01-09 11:00:00,
2013-01-09 06:01:00,58.7,51.5,30.31,NNE,14,0.0,0.0,77,0.00,,---,0.00,VWS V14.01,2013-01-09 11:01:00,
2013-01-09 06:06:00,58.7,51.5,30.31,NNE,24,0.0,0.0,77,0.00,,---,0.00,VWS V14.01,2013-01-09 11:06:00,
2013-01-09 06:11:00,58.7,51.5,30.32,NNE,19,0.0,0.0,77,0.00,,---,0.00,VWS V14.01,2013-01-09 11:11:00,
2013-01-09 06:16:00,58.7,51.5,30.32,NNE,17,0.0,0.0,77,0.00,,---,0.00,VWS V14.01,2013-01-09 11:16:00,
2013-01-09 06:21:00,58.7,51.5,30.32,NNE,17,0.0,0.0,77,0.00,,---,0.00,VWS V14.01,2013-01-09 11:21:00,
2013-01-09 06:26:00,58.7,51.5,30.32,NNE,29,0.0,0.0,77,0.00,,---,0.00,VWS V14.01,2013-01-09 11:26:00,
2013-01-09 06:30:00,58.8,51.6,30.33,NNE,30,0.0,0.0,77,0.00,,---,0.00,VWS V14.01,2013-01-09 11:30:00,
2013-01-09 06:31:00,58.8,51.6,30.33,NNE,30,0.0,0.0,77,0.00,,---,0.00,VWS V14.01,2013-01-09 11:31:00,
2013-01-09 06:36:00,58.8,51.6,30.33,NNE,26,0.0,0.0,77,0.00,,---,0.00,VWS V14.01,2013-01-09 11:36:00,
2013-01-09 06:41:00,58.8,51.6,30.33,NNE,23,0.0,0.0,77,0.00,,---,0.00,VWS V14.01,2013-01-09 11:41:00,
2013-01-09 06:46:00,58.9,51.7,30.33,NNE,23,0.0,0.0,77,0.00,,---,0.00,VWS V14.01,2013-01-09 11:46:00,
2013-01-09 06:51:00,59.0,52.2,30.33,NNE,22,0.0,0.0,78,0.00,,---,0.00,VWS V14.01,2013-01-09 11:51:00,
2013-01-09 06:56:00,59.1,52.3,30.34,North,5,0.0,0.0,78,0.00,,---,0.00,VWS V14.01,2013-01-09 11:56:00,
2013-01-09 07:00:00,59.2,52.3,30.34,North,5,0.0,0.0,78,0.00,,---,0.00,VWS V14.01,2013-01-09 12:00:00,
2013-01-09 07:01:00,59.2,52.3,30.34,North,5,0.0,0.0,78,0.00,,---,0.00,VWS V14.01,2013-01-09 12:01:00,
2013-01-09 07:06:00,59.2,52.3,30.34,NNE,29,0.0,0.0,78,0.00,,---,0.00,VWS V14.01,2013-01-09 12:06:00,
2013-01-09 07:11:00,59.3,52.5,30.34,NNE,33,0.0,0.0,78,0.00,,---,0.00,VWS V14.01,2013-01-09 12:11:00,
2013-01-09 07:16:00,59.5,52.6,30.34,NNE,25,0.0,0.0,78,0.00,,---,0.00,VWS V14.01,2013-01-09 12:16:00,
2013-01-09 07:21:00,59.9,53.0,30.34,North,5,0.0,0.0,78,0.00,,---,0.00,VWS V14.01,2013-01-09 12:21:00,
2013-01-09 07:26:00,60.2,53.3,30.34,NNE,32,0.0,0.0,78,0.00,,---,0.00,VWS V14.01,2013-01-09 12:26:00,
2013-01-09 07:30:00,60.5,53.3,30.34,NE,38,0.0,0.0,77,0.00,,---,0.00,VWS V14.01,2013-01-09 12:30:00,
2013-01-09 07:31:00,60.5,53.3,30.35,NNE,13,0.0,0.0,77,0.00,,---,0.00,VWS V14.01,2013-01-09 12:31:00,
2013-01-09 07:36:00,60.7,53.5,30.35,NNE,22,0.0,0.0,77,0.00,,---,0.00,VWS V14.01,2013-01-09 12:36:00,
2013-01-09 07:41:00,60.8,53.2,30.35,North,355,0.0,0.0,76,0.00,,---,0.00,VWS V14.01,2013-01-09 12:41:00,
2013-01-09 07:46:00,60.7,53.1,30.35,North,10,0.0,0.0,76,0.00,,---,0.00,VWS V14.01,2013-01-09 12:46:00,
2013-01-09 07:51:00,60.5,52.9,30.35,NE,40,0.0,0.0,76,0.00,,---,0.00,VWS V14.01,2013-01-09 12:51:00,
2013-01-09 07:56:00,60.4,52.8,30.35,WNW,303,0.0,0.0,76,0.00,,---,0.00,VWS V14.01,2013-01-09 12:56:00,
2013-01-09 08:00:00,60.4,52.8,30.35,WNW,302,0.0,0.0,76,0.00,,---,0.00,VWS V14.01,2013-01-09 13:00:00,
2013-01-09 08:01:00,60.4,52.8,30.35,WNW,302,0.0,0.0,76,0.00,,---,0.00,VWS V14.01,2013-01-09 13:01:00,
2013-01-09 08:06:00,60.4,52.8,30.35,WNW,302,0.0,0.0,76,0.00,,---,0.00,VWS V14.01,2013-01-09 13:06:00,
2013-01-09 08:11:00,60.5,52.9,30.35,WNW,302,0.0,0.0,76,0.00,,---,0.00,VWS V14.01,2013-01-09 13:11:00,
2013-01-09 08:16:00,60.6,52.6,30.35,ENE,63,7.0,11.0,75,0.00,,---,0.00,VWS V14.01,2013-01-09 13:16:00,
2013-01-09 08:21:00,60.7,52.7,30.35,NE,55,7.0,12.0,75,0.00,,---,0.00,VWS V14.01,2013-01-09 13:21:00,
2013-01-09 08:26:00,60.9,52.9,30.35,ENE,59,8.0,13.0,75,0.00,,---,0.00,VWS V14.01,2013-01-09 13:26:00,
2013-01-09 08:30:00,61.2,52.9,30.35,ENE,60,9.0,13.0,74,0.00,,---,0.00,VWS V14.01,2013-01-09 13:30:00,
2013-01-09 08:31:00,61.2,52.9,30.35,NE,55,8.0,9.0,74,0.00,,---,0.00,VWS V14.01,2013-01-09 13:31:00,
2013-01-09 08:36:00,61.4,52.7,30.36,NE,53,6.0,13.0,73,0.00,,---,0.00,VWS V14.01,2013-01-09 13:36:00,
2013-01-09 08:41:00,62.0,53.3,30.36,NW,325,9.0,13.0,73,0.00,,---,0.00,VWS V14.01,2013-01-09 13:41:00,
2013-01-09 08:46:00,62.3,53.5,30.36,NW,324,6.0,13.0,73,0.00,,---,0.00,VWS V14.01,2013-01-09 13:46:00,
2013-01-09 08:51:00,62.3,53.2,30.36,NE,44,4.0,13.0,72,0.00,,---,0.00,VWS V14.01,2013-01-09 13:51:00,
2013-01-09 08:56:00,62.2,53.1,30.36,ENE,59,5.0,13.0,72,0.00,,---,0.00,VWS V14.01,2013-01-09 13:56:00,
2013-01-09 09:00:00,62.1,53.0,30.36,ENE,65,4.0,13.0,72,0.00,,---,0.00,VWS V14.01,2013-01-09 14:00:00,
2013-01-09 09:01:00,62.1,53.0,30.36,ENE,59,6.0,6.0,72,0.00,,---,0.00,VWS V14.01,2013-01-09 14:01:00,
2013-01-09 09:06:00,62.1,53.0,30.36,NE,54,6.0,11.0,72,0.00,,---,0.00,VWS V14.01,2013-01-09 14:06:00,
2013-01-09 09:11:00,62.1,53.0,30.36,ENE,67,13.0,13.0,72,0.00,,---,0.00,VWS V14.01,2013-01-09 14:11:00,
2013-01-09 09:16:00,62.4,53.3,30.36,ENE,66,10.0,14.0,72,0.00,,---,0.00,VWS V14.01,2013-01-09 14:16:00,
2013-01-09 09:21:00,62.7,53.2,30.36,ENE,65,6.0,14.0,71,0.00,,---,0.00,VWS V14.01,2013-01-09 14:21:00,
2013-01-09 09:26:00,63.0,53.5,30.36,ENE,64,6.0,14.0,71,0.00,,---,0.00,VWS V14.01,2013-01-09 14:26:00,
2013-01-09 09:30:00,63.2,53.3,30.36,ENE,78,11.0,14.0,70,0.00,,---,0.00,VWS V14.01,2013-01-09 14:30:00,
2013-01-09 09:31:00,63.2,53.3,30.36,ENE,73,11.0,11.0,70,0.00,,---,0.00,VWS V14.01,2013-01-09 14:31:00,
2013-01-09 09:36:00,63.0,52.7,30.36,ENE,69,3.0,12.0,69,0.00,,---,0.00,VWS V14.01,2013-01-09 14:36:00,
2013-01-09 09:41:00,62.4,52.1,30.36,ENE,67,6.0,15.0,69,0.00,,---,0.00,VWS V14.01,2013-01-09 14:41:00,
2013-01-09 09:46:00,62.0,51.7,30.36,East,83,9.0,15.0,69,0.00,,---,0.00,VWS V14.01,2013-01-09 14:46:00,
2013-01-09 09:51:00,61.8,51.9,30.36,ENE,67,10.0,15.0,70,0.00,,---,0.00,VWS V14.01,2013-01-09 14:51:00,
2013-01-09 09:56:00,61.8,51.9,30.36,ENE,68,6.0,15.0,70,0.00,,---,0.00,VWS V14.01,2013-01-09 14:56:00,
2013-01-09 10:00:00,62.3,52.4,30.36,ENE,67,6.0,15.0,70,0.00,,---,0.00,VWS V14.01,2013-01-09 15:00:00,
2013-01-09 10:01:00,62.4,52.5,30.36,ENE,62,8.0,8.0,70,0.00,,---,0.00,VWS V14.01,2013-01-09 15:01:00,
2013-01-09 10:06:00,63.2,52.9,30.36,ENE,69,12.0,14.0,69,0.00,,---,0.00,VWS V14.01,2013-01-09 15:06:00,
2013-01-09 10:11:00,64.0,53.2,30.36,ENE,69,9.0,14.0,68,0.00,,---,0.00,VWS V14.01,2013-01-09 15:11:00,
2013-01-09 10:16:00,63.8,52.7,30.36,ENE,77,10.0,14.0,67,0.00,,---,0.00,VWS V14.01,2013-01-09 15:16:00,
2013-01-09 10:21:00,63.9,52.7,30.36,East,82,14.0,15.0,67,0.00,,---,0.00,VWS V14.01,2013-01-09 15:21:00,
2013-01-09 10:30:00,64.5,52.9,30.35,NE,53,10.0,15.0,66,0.00,,---,0.00,VWS V14.01,2013-01-09 15:30:00,
2013-01-09 10:37:00,63.8,52.7,30.36,ENE,69,9.0,9.0,67,0.00,,---,0.00,VWS V14.01,2013-01-09 15:37:00,
2013-01-09 10:42:00,63.3,52.2,30.36,East,90,12.0,14.0,67,0.00,,---,0.00,VWS V14.01,2013-01-09 15:42:00,
2013-01-09 10:47:00,62.6,51.9,30.35,ENE,75,9.0,14.0,68,0.00,,---,0.00,VWS V14.01,2013-01-09 15:47:00,
2013-01-09 10:52:00,62.2,51.9,30.35,ENE,74,8.0,14.0,69,0.00,,---,0.00,VWS V14.01,2013-01-09 15:52:00,
2013-01-09 10:57:00,61.9,52.0,30.35,ENE,58,5.0,14.0,70,0.00,,---,0.00,VWS V14.01,2013-01-09 15:57:00,
2013-01-09 11:00:00,61.9,52.0,30.35,ENE,63,3.0,14.0,70,0.00,,---,0.00,VWS V14.01,2013-01-09 16:00:00,
2013-01-09 11:02:00,61.9,52.0,30.35,ENE,70,7.0,12.0,70,0.00,,---,0.00,VWS V14.01,2013-01-09 16:02:00,
2013-01-09 11:07:00,62.4,52.5,30.35,ENE,77,4.0,12.0,70,0.00,,---,0.00,VWS V14.01,2013-01-09 16:07:00,
2013-01-09 11:12:00,62.9,52.2,30.36,ENE,67,12.0,15.0,68,0.00,,---,0.00,VWS V14.01,2013-01-09 16:12:00,
2013-01-09 11:17:00,63.6,52.9,30.35,ENE,59,7.0,15.0,68,0.00,,---,0.00,VWS V14.01,2013-01-09 16:17:00,
2013-01-09 11:22:00,64.0,52.8,30.35,ENE,71,10.0,15.0,67,0.00,,---,0.00,VWS V14.01,2013-01-09 16:22:00,
2013-01-09 11:27:00,64.2,53.0,30.35,East,81,8.0,15.0,67,0.00,,---,0.00,VWS V14.01,2013-01-09 16:27:00,
2013-01-09 11:30:00,64.5,52.9,30.35,NE,53,10.0,15.0,66,0.00,,---,0.00,VWS V14.01,2013-01-09 16:30:00,
2013-01-09 11:32:00,64.5,52.9,30.35,ENE,71,6.0,12.0,66,0.00,,---,0.00,VWS V14.01,2013-01-09 16:32:00,
2013-01-09 11:37:00,64.4,52.8,30.35,ENE,71,5.0,13.0,66,0.00,,---,0.00,VWS V14.01,2013-01-09 16:37:00,
2013-01-09 11:42:00,64.6,53.4,30.35,ENE,73,7.0,13.0,67,0.00,,---,0.00,VWS V14.01,2013-01-09 16:42:00,
2013-01-09 11:47:00,64.4,53.2,30.35,East,89,9.0,13.0,67,0.00,,---,0.00,VWS V14.01,2013-01-09 16:47:00,
2013-01-09 11:52:00,63.6,52.5,30.35,ENE,59,6.0,13.0,67,0.00,,---,0.00,VWS V14.01,2013-01-09 16:52:00,
2013-01-09 11:57:00,62.8,52.1,30.35,ENE,78,9.0,13.0,68,0.00,,---,0.00,VWS V14.01,2013-01-09 16:57:00,
2013-01-09 12:00:00,62.7,52.8,30.35,East,84,3.0,13.0,70,0.00,,---,0.00,VWS V14.01,2013-01-09 17:00:00,
2013-01-09 12:02:00,62.7,52.4,30.35,East,80,4.0,7.0,69,0.00,,---,0.00,VWS V14.01,2013-01-09 17:02:00,
2013-01-09 12:07:00,62.4,52.1,30.34,East,90,6.0,10.0,69,0.00,,---,0.00,VWS V14.01,2013-01-09 17:07:00,
2013-01-09 12:12:00,62.1,51.8,30.34,East,82,0.0,10.0,69,0.00,,---,0.00,VWS V14.01,2013-01-09 17:12:00,
2013-01-09 12:17:00,61.6,51.7,30.33,East,80,5.0,10.0,70,0.00,,---,0.00,VWS V14.01,2013-01-09 17:17:00,
2013-01-09 12:22:00,61.1,51.6,30.33,East,85,3.0,10.0,71,0.00,,---,0.00,VWS V14.01,2013-01-09 17:22:00,
2013-01-09 12:27:00,60.8,51.7,30.33,East,88,5.0,10.0,72,0.00,,---,0.00,VWS V14.01,2013-01-09 17:27:00,
2013-01-09 12:30:00,60.8,51.7,30.33,ENE,74,0.0,10.0,72,0.00,,---,0.00,VWS V14.01,2013-01-09 17:30:00,
2013-01-09 12:32:00,60.8,51.7,30.33,ENE,74,3.0,4.0,72,0.00,,---,0.00,VWS V14.01,2013-01-09 17:32:00,
2013-01-09 12:37:00,61.0,51.9,30.33,East,90,6.0,7.0,72,0.00,,---,0.00,VWS V14.01,2013-01-09 17:37:00,
2013-01-09 12:42:00,61.3,51.8,30.33,NE,46,3.0,7.0,71,0.00,,---,0.00,VWS V14.01,2013-01-09 17:42:00,
2013-01-09 12:47:00,61.9,52.4,30.33,ENE,68,6.0,7.0,71,0.00,,---,0.00,VWS V14.01,2013-01-09 17:47:00,
2013-01-09 12:52:00,62.5,52.6,30.33,ENE,78,6.0,8.0,70,0.00,,---,0.00,VWS V14.01,2013-01-09 17:52:00,
2013-01-09 12:57:00,63.1,52.4,30.33,East,82,1.0,10.0,68,0.00,,---,0.00,VWS V14.01,2013-01-09 17:57:00,
2013-01-09 13:00:00,63.4,52.7,30.32,East,82,6.0,10.0,68,0.00,,---,0.00,VWS V14.01,2013-01-09 18:00:00,
2013-01-09 13:02:00,63.4,52.7,30.32,East,83,10.0,11.0,68,0.00,,---,0.00,VWS V14.01,2013-01-09 18:02:00,
2013-01-09 13:07:00,63.4,52.3,30.32,ENE,69,6.0,11.0,67,0.00,,---,0.00,VWS V14.01,2013-01-09 18:07:00,
2013-01-09 13:12:00,63.5,52.4,30.32,ENE,61,3.0,11.0,67,0.00,,---,0.00,VWS V14.01,2013-01-09 18:12:00,
2013-01-09 13:17:00,63.7,52.5,30.33,ENE,67,5.0,12.0,67,0.00,,---,0.00,VWS V14.01,2013-01-09 18:17:00,
2013-01-09 13:22:00,64.1,52.5,30.33,East,92,7.0,12.0,66,0.00,,---,0.00,VWS V14.01,2013-01-09 18:22:00,
2013-01-09 13:27:00,64.8,53.2,30.33,ENE,71,10.0,12.0,66,0.00,,---,0.00,VWS V14.01,2013-01-09 18:27:00,
2013-01-09 13:30:00,65.1,53.1,30.33,ENE,57,3.0,12.0,65,0.00,,---,0.00,VWS V14.01,2013-01-09 18:30:00,
2013-01-09 13:32:00,65.1,53.1,30.33,ENE,74,5.0,11.0,65,0.00,,---,0.00,VWS V14.01,2013-01-09 18:32:00,
2013-01-09 13:37:00,65.5,53.4,30.33,ENE,71,1.0,11.0,65,0.00,,---,0.00,VWS V14.01,2013-01-09 18:37:00,
2013-01-09 13:41:00,66.1,54.0,30.33,East,90,7.0,11.0,65,0.00,,---,0.00,VWS V14.01,2013-01-09 18:41:00,
2013-01-09 13:44:00,66.1,53.2,30.33,ENE,77,7.0,11.0,63,0.00,,---,0.00,VWS V14.01,2013-01-09 18:44:00,
2013-01-09 13:48:00,66.0,53.1,30.33,ENE,67,9.0,13.0,63,0.00,,---,0.00,VWS V14.01,2013-01-09 18:48:00,
2013-01-09 13:53:00,66.3,53.8,30.33,NE,51,9.0,13.0,64,0.00,,---,0.00,VWS V14.01,2013-01-09 18:53:00,
2013-01-09 13:58:00,66.4,53.4,30.33,ENE,66,7.0,13.0,63,0.00,,---,0.00,VWS V14.01,2013-01-09 18:58:00,
2013-01-09 14:00:00,66.4,53.4,30.33,East,92,7.0,13.0,63,0.00,,---,0.00,VWS V14.01,2013-01-09 19:00:00,
2013-01-09 14:03:00,66.5,54.0,30.33,ENE,66,8.0,11.0,64,0.00,,---,0.00,VWS V14.01,2013-01-09 19:03:00,
2013-01-09 14:08:00,66.3,53.8,30.33,ENE,75,6.0,12.0,64,0.00,,---,0.00,VWS V14.01,2013-01-09 19:08:00,
2013-01-09 14:13:00,65.8,53.3,30.33,ENE,74,6.0,12.0,64,0.00,,---,0.00,VWS V14.01,2013-01-09 19:13:00,
2013-01-09 14:18:00,65.4,53.3,30.33,ENE,62,4.0,12.0,65,0.00,,---,0.00,VWS V14.01,2013-01-09 19:18:00,
2013-01-09 14:23:00,65.2,52.7,30.33,NE,44,4.0,12.0,64,0.00,,---,0.00,VWS V14.01,2013-01-09 19:23:00,
2013-01-09 14:28:00,65.1,53.1,30.33,ENE,61,5.0,12.0,65,0.00,,---,0.00,VWS V14.01,2013-01-09 19:28:00,
2013-01-09 14:30:00,65.1,53.1,30.33,East,86,8.0,12.0,65,0.00,,---,0.00,VWS V14.01,2013-01-09 19:30:00,
2013-01-09 14:33:00,64.9,52.9,30.33,East,89,7.0,9.0,65,0.00,,---,0.00,VWS V14.01,2013-01-09 19:33:00,
2013-01-09 14:38:00,64.9,53.3,30.33,ENE,66,7.0,11.0,66,0.00,,---,0.00,VWS V14.01,2013-01-09 19:38:00,
2013-01-09 14:43:00,64.8,52.8,30.33,ENE,67,3.0,11.0,65,0.00,,---,0.00,VWS V14.01,2013-01-09 19:43:00,
2013-01-09 14:48:00,64.9,52.9,30.33,ENE,63,3.0,11.0,65,0.00,,---,0.00,VWS V14.01,2013-01-09 19:48:00,
2013-01-09 14:53:00,64.9,52.9,30.33,East,84,7.0,11.0,65,0.00,,---,0.00,VWS V14.01,2013-01-09 19:53:00,
2013-01-09 14:58:00,64.8,52.8,30.33,East,86,0.0,11.0,65,0.00,,---,0.00,VWS V14.01,2013-01-09 19:58:00,
2013-01-09 15:00:00,64.8,53.2,30.33,ENE,78,0.0,11.0,66,0.00,,---,0.00,VWS V14.01,2013-01-09 20:00:00,
2013-01-09 15:03:00,64.7,52.7,30.33,ENE,68,0.0,0.0,65,0.00,,---,0.00,VWS V14.01,2013-01-09 20:03:00,
2013-01-09 15:08:00,64.8,52.8,30.33,ENE,74,0.0,0.0,65,0.00,,---,0.00,VWS V14.01,2013-01-09 20:08:00,
2013-01-09 15:13:00,65.2,53.6,30.33,ENE,78,0.0,0.0,66,0.00,,---,0.00,VWS V14.01,2013-01-09 20:13:00,
2013-01-09 15:18:00,65.3,53.2,30.33,ENE,59,0.0,0.0,65,0.00,,---,0.00,VWS V14.01,2013-01-09 20:18:00,
2013-01-09 15:23:00,65.5,53.4,30.33,ENE,70,0.0,0.0,65,0.00,,---,0.00,VWS V14.01,2013-01-09 20:23:00,
2013-01-09 15:28:00,65.3,53.2,30.33,ENE,65,0.0,0.0,65,0.00,,---,0.00,VWS V14.01,2013-01-09 20:28:00,
2013-01-09 15:30:00,65.2,53.2,30.33,ENE,72,0.0,0.0,65,0.00,,---,0.00,VWS V14.01,2013-01-09 20:30:00,
2013-01-09 15:33:00,65.1,53.1,30.33,NE,48,0.0,0.0,65,0.00,,---,0.00,VWS V14.01,2013-01-09 20:33:00,
2013-01-09 15:38:00,65.0,53.4,30.33,ENE,68,0.0,0.0,66,0.00,,---,0.00,VWS V14.01,2013-01-09 20:38:00,
2013-01-09 15:43:00,65.3,54.1,30.33,NE,49,0.0,0.0,67,0.00,,---,0.00,VWS V14.01,2013-01-09 20:43:00,
2013-01-09 15:48:00,65.6,54.8,30.33,NE,55,0.0,0.0,68,0.00,,---,0.00,VWS V14.01,2013-01-09 20:48:00,
2013-01-09 15:53:00,65.5,54.7,30.34,NE,55,0.0,0.0,68,0.00,,---,0.00,VWS V14.01,2013-01-09 20:53:00,
2013-01-09 15:58:00,65.4,55.0,30.34,NE,44,0.0,0.0,69,0.00,,---,0.00,VWS V14.01,2013-01-09 20:58:00,
2013-01-09 16:00:00,65.3,54.9,30.34,ENE,57,0.0,0.0,69,0.00,,---,0.00,VWS V14.01,2013-01-09 21:00:00,
2013-01-09 16:03:00,65.3,54.9,30.34,NE,38,0.0,0.0,69,0.00,,---,0.00,VWS V14.01,2013-01-09 21:03:00,
2013-01-09 16:08:00,65.2,54.8,30.34,NE,42,0.0,0.0,69,0.00,,---,0.00,VWS V14.01,2013-01-09 21:08:00,
2013-01-09 16:13:00,64.9,54.5,30.34,NE,46,0.0,0.0,69,0.00,,---,0.00,VWS V14.01,2013-01-09 21:13:00,
2013-01-09 16:18:00,64.8,54.8,30.34,NE,45,0.0,0.0,70,0.00,,---,0.00,VWS V14.01,2013-01-09 21:18:00,
2013-01-09 16:23:00,64.7,54.7,30.34,NE,53,0.0,0.0,70,0.00,,---,0.00,VWS V14.01,2013-01-09 21:23:00,
2013-01-09 16:28:00,64.5,54.9,30.35,NE,37,0.0,0.0,71,0.00,,---,0.00,VWS V14.01,2013-01-09 21:28:00,
2013-01-09 16:30:00,64.4,54.8,30.35,NNE,26,0.0,0.0,71,0.00,,---,0.00,VWS V14.01,2013-01-09 21:30:00,
2013-01-09 16:33:00,64.3,54.7,30.35,NE,53,0.0,0.0,71,0.00,,---,0.00,VWS V14.01,2013-01-09 21:33:00,
2013-01-09 16:38:00,64.1,54.9,30.35,NNE,23,0.0,0.0,72,0.00,,---,0.00,VWS V14.01,2013-01-09 21:38:00,
2013-01-09 16:43:00,64.0,54.8,30.35,NNE,30,0.0,0.0,72,0.00,,---,0.00,VWS V14.01,2013-01-09 21:43:00,
2013-01-09 16:48:00,64.0,55.2,30.35,NNE,17,0.0,0.0,73,0.00,,---,0.00,VWS V14.01,2013-01-09 21:48:00,
2013-01-09 16:53:00,64.1,55.3,30.35,NE,40,0.0,0.0,73,0.00,,---,0.00,VWS V14.01,2013-01-09 21:53:00,
2013-01-09 16:58:00,64.1,55.7,30.35,NE,52,0.0,0.0,74,0.00,,---,0.00,VWS V14.01,2013-01-09 21:58:00,
2013-01-09 17:00:00,64.0,55.6,30.35,NE,48,0.0,0.0,74,0.00,,---,0.00,VWS V14.01,2013-01-09 22:00:00,
2013-01-09 17:03:00,64.0,55.6,30.35,NE,48,0.0,0.0,74,0.00,,---,0.00,VWS V14.01,2013-01-09 22:03:00,
2013-01-09 17:08:00,64.0,55.9,30.35,ENE,64,0.0,0.0,75,0.00,,---,0.00,VWS V14.01,2013-01-09 22:08:00,
2013-01-09 17:13:00,63.9,55.8,30.35,ENE,64,0.0,0.0,75,0.00,,---,0.00,VWS V14.01,2013-01-09 22:13:00,
2013-01-09 17:18:00,63.8,56.1,30.35,ENE,57,0.0,0.0,76,0.00,,---,0.00,VWS V14.01,2013-01-09 22:18:00,
2013-01-09 17:23:00,63.9,56.2,30.35,East,79,0.0,0.0,76,0.00,,---,0.00,VWS V14.01,2013-01-09 22:23:00,
2013-01-09 17:28:00,63.8,56.1,30.35,ENE,76,0.0,0.0,76,0.00,,---,0.00,VWS V14.01,2013-01-09 22:28:00,
2013-01-09 17:30:00,63.7,56.0,30.35,ENE,60,0.0,0.0,76,0.00,,---,0.00,VWS V14.01,2013-01-09 22:30:00,
2013-01-09 17:33:00,63.6,55.9,30.35,ENE,61,0.0,0.0,76,0.00,,---,0.00,VWS V14.01,2013-01-09 22:33:00,
2013-01-09 17:38:00,63.6,55.9,30.35,ENE,61,0.0,0.0,76,0.00,,---,0.00,VWS V14.01,2013-01-09 22:38:00,
2013-01-09 17:43:00,63.5,56.2,30.36,ENE,65,0.0,0.0,77,0.00,,---,0.00,VWS V14.01,2013-01-09 22:43:00,
2013-01-09 17:48:00,63.3,56.0,30.36,ENE,65,0.0,0.0,77,0.00,,---,0.00,VWS V14.01,2013-01-09 22:48:00,
2013-01-09 17:53:00,63.2,55.9,30.36,ENE,65,0.0,0.0,77,0.00,,---,0.00,VWS V14.01,2013-01-09 22:53:00,
2013-01-09 17:58:00,63.0,55.7,30.36,ENE,67,0.0,0.0,77,0.00,,---,0.00,VWS V14.01,2013-01-09 22:58:00,
2013-01-09 18:00:00,63.0,55.7,30.36,ENE,67,0.0,0.0,77,0.00,,---,0.00,VWS V14.01,2013-01-09 23:00:00,
2013-01-09 18:03:00,63.0,55.7,30.36,ENE,68,0.0,0.0,77,0.00,,---,0.00,VWS V14.01,2013-01-09 23:03:00,
2013-01-09 18:08:00,62.9,55.6,30.36,ENE,68,0.0,0.0,77,0.00,,---,0.00,VWS V14.01,2013-01-09 23:08:00,
2013-01-09 18:13:00,62.7,55.4,30.35,East,80,0.0,0.0,77,0.00,,---,0.00,VWS V14.01,2013-01-09 23:13:00,
2013-01-09 18:18:00,62.5,55.2,30.35,East,81,0.0,0.0,77,0.00,,---,0.00,VWS V14.01,2013-01-09 23:18:00,
2013-01-09 18:23:00,62.3,55.0,30.35,East,82,0.0,0.0,77,0.00,,---,0.00,VWS V14.01,2013-01-09 23:23:00,
2013-01-09 18:28:00,62.1,54.8,30.35,East,80,0.0,0.0,77,0.00,,---,0.00,VWS V14.01,2013-01-09 23:28:00,
2013-01-09 18:30:00,61.9,54.6,30.36,East,80,0.0,0.0,77,0.00,,---,0.00,VWS V14.01,2013-01-09 23:30:00,
2013-01-09 18:33:00,61.8,54.5,30.36,East,80,0.0,0.0,77,0.00,,---,0.00,VWS V14.01,2013-01-09 23:33:00,
2013-01-09 18:38:00,61.6,54.3,30.36,East,80,0.0,0.0,77,0.00,,---,0.00,VWS V14.01,2013-01-09 23:38:00,
2013-01-09 18:43:00,61.4,54.1,30.36,East,80,0.0,0.0,77,0.00,,---,0.00,VWS V14.01,2013-01-09 23:43:00,
2013-01-09 18:48:00,61.3,54.0,30.36,ENE,78,0.0,0.0,77,0.00,,---,0.00,VWS V14.01,2013-01-09 23:48:00,
2013-01-09 18:53:00,61.2,53.9,30.36,ENE,78,0.0,0.0,77,0.00,,---,0.00,VWS V14.01,2013-01-09 23:53:00,
2013-01-09 18:58:00,61.1,53.8,30.36,ENE,78,0.0,0.0,77,0.00,,---,0.00,VWS V14.01,2013-01-09 23:58:00,
2013-01-09 19:00:00,61.0,53.8,30.36,ENE,78,0.0,0.0,77,0.00,,---,0.00,VWS V14.01,2013-01-10 00:00:00,
2013-01-09 19:03:00,60.9,53.7,30.36,ENE,78,0.0,0.0,77,0.00,,---,0.00,VWS V14.01,2013-01-10 00:03:00,
2013-01-09 19:08:00,60.7,53.5,30.36,ESE,119,0.0,0.0,77,0.00,,---,0.00,VWS V14.01,2013-01-10 00:08:00,
2013-01-09 19:13:00,60.6,53.4,30.36,ESE,119,0.0,0.0,77,0.00,,---,0.00,VWS V14.01,2013-01-10 00:13:00,
2013-01-09 19:18:00,60.5,53.3,30.36,ESE,119,0.0,0.0,77,0.00,,---,0.00,VWS V14.01,2013-01-10 00:18:00,
2013-01-09 19:23:00,60.4,53.2,30.36,ESE,119,0.0,0.0,77,0.00,,---,0.00,VWS V14.01,2013-01-10 00:23:00,
2013-01-09 19:28:00,60.3,53.4,30.36,ESE,119,0.0,0.0,78,0.00,,---,0.00,VWS V14.01,2013-01-10 00:28:00,
2013-01-09 19:30:00,60.2,53.3,30.36,ESE,119,0.0,0.0,78,0.00,,---,0.00,VWS V14.01,2013-01-10 00:30:00,
2013-01-09 19:33:00,60.1,53.2,30.36,ESE,119,0.0,0.0,78,0.00,,---,0.00,VWS V14.01,2013-01-10 00:33:00,
2013-01-09 19:37:00,59.9,53.0,30.36,ESE,119,0.0,0.0,78,0.00,,---,0.00,VWS V14.01,2013-01-10 00:37:00,
2013-01-09 19:42:00,59.8,52.9,30.36,ESE,119,0.0,0.0,78,0.00,,---,0.00,VWS V14.01,2013-01-10 00:42:00,
2013-01-09 19:47:00,59.6,52.7,30.36,ESE,119,0.0,0.0,78,0.00,,---,0.00,VWS V14.01,2013-01-10 00:47:00,
2013-01-09 19:52:00,59.5,52.6,30.36,ESE,119,0.0,0.0,78,0.00,,---,0.00,VWS V14.01,2013-01-10 00:52:00,
2013-01-09 19:57:00,59.4,52.5,30.36,ESE,119,0.0,0.0,78,0.00,,---,0.00,VWS V14.01,2013-01-10 00:57:00,
2013-01-09 20:00:00,59.4,52.9,30.37,ESE,119,0.0,0.0,79,0.00,,---,0.00,VWS V14.01,2013-01-10 01:00:00,
2013-01-09 20:02:00,59.4,52.9,30.37,ESE,119,0.0,0.0,79,0.00,,---,0.00,VWS V14.01,2013-01-10 01:02:00,
2013-01-09 20:07:00,59.4,52.9,30.37,ESE,119,0.0,0.0,79,0.00,,---,0.00,VWS V14.01,2013-01-10 01:07:00,
2013-01-09 20:12:00,59.4,52.9,30.37,ESE,119,0.0,0.0,79,0.00,,---,0.00,VWS V14.01,2013-01-10 01:12:00,
2013-01-09 20:17:00,59.4,52.9,30.37,ESE,119,0.0,0.0,79,0.00,,---,0.00,VWS V14.01,2013-01-10 01:17:00,
2013-01-09 20:22:00,59.5,53.3,30.37,ESE,119,0.0,0.0,80,0.00,,---,0.00,VWS V14.01,2013-01-10 01:22:00,
2013-01-09 20:27:00,59.6,53.4,30.37,ESE,119,0.0,0.0,80,0.00,,---,0.00,VWS V14.01,2013-01-10 01:27:00,
2013-01-09 20:30:00,59.7,53.5,30.36,ESE,119,0.0,0.0,80,0.00,,---,0.00,VWS V14.01,2013-01-10 01:30:00,
2013-01-09 20:32:00,59.7,53.5,30.37,ESE,119,0.0,0.0,80,0.00,,---,0.00,VWS V14.01,2013-01-10 01:32:00,
2013-01-09 20:37:00,59.7,53.5,30.37,ESE,119,0.0,0.0,80,0.00,,---,0.00,VWS V14.01,2013-01-10 01:37:00,
2013-01-09 20:42:00,59.6,53.4,30.37,ESE,119,0.0,0.0,80,0.00,,---,0.00,VWS V14.01,2013-01-10 01:42:00,
2013-01-09 20:47:00,59.4,53.2,30.37,ESE,119,0.0,0.0,80,0.00,,---,0.00,VWS V14.01,2013-01-10 01:47:00,
2013-01-09 20:52:00,59.3,53.5,30.37,ESE,119,0.0,0.0,81,0.00,,---,0.00,VWS V14.01,2013-01-10 01:52:00,
2013-01-09 20:57:00,59.2,53.4,30.37,ESE,119,0.0,0.0,81,0.00,,---,0.00,VWS V14.01,2013-01-10 01:57:00,
2013-01-09 21:00:00,59.2,53.4,30.37,ESE,119,0.0,0.0,81,0.00,,---,0.00,VWS V14.01,2013-01-10 02:00:00,
2013-01-09 21:02:00,59.1,53.3,30.37,ESE,119,0.0,0.0,81,0.00,,---,0.00,VWS V14.01,2013-01-10 02:02:00,
2013-01-09 21:07:00,58.9,53.1,30.36,ESE,119,0.0,0.0,81,0.00,,---,0.00,VWS V14.01,2013-01-10 02:07:00,
2013-01-09 21:12:00,58.5,52.7,30.36,ESE,119,0.0,0.0,81,0.00,,---,0.00,VWS V14.01,2013-01-10 02:12:00,
2013-01-09 21:17:00,58.3,52.5,30.36,ESE,119,0.0,0.0,81,0.00,,---,0.00,VWS V14.01,2013-01-10 02:17:00,
2013-01-09 21:22:00,58.2,52.4,30.36,ESE,119,0.0,0.0,81,0.00,,---,0.00,VWS V14.01,2013-01-10 02:22:00,
2013-01-09 21:27:00,58.1,52.3,30.36,ESE,119,0.0,0.0,81,0.00,,---,0.00,VWS V14.01,2013-01-10 02:27:00,
2013-01-09 21:30:00,58.1,52.6,30.36,ESE,119,0.0,0.0,82,0.00,,---,0.00,VWS V14.01,2013-01-10 02:30:00,
2013-01-09 21:32:00,58.1,52.6,30.36,ESE,119,0.0,0.0,82,0.00,,---,0.00,VWS V14.01,2013-01-10 02:32:00,
2013-01-09 21:37:00,58.2,52.7,30.36,ESE,119,0.0,0.0,82,0.00,,---,0.00,VWS V14.01,2013-01-10 02:37:00,
2013-01-09 21:42:00,58.1,52.6,30.36,ESE,119,0.0,0.0,82,0.00,,---,0.00,VWS V14.01,2013-01-10 02:42:00,
2013-01-09 21:47:00,57.8,52.3,30.36,ESE,119,0.0,0.0,82,0.00,,---,0.00,VWS V14.01,2013-01-10 02:47:00,
2013-01-09 21:52:00,57.8,52.3,30.36,ESE,119,0.0,0.0,82,0.00,,---,0.00,VWS V14.01,2013-01-10 02:52:00,
2013-01-09 21:57:00,57.8,52.3,30.36,ESE,119,0.0,0.0,82,0.00,,---,0.00,VWS V14.01,2013-01-10 02:57:00,
2013-01-09 22:00:00,57.9,52.5,30.36,ESE,119,0.0,0.0,82,0.00,,---,0.00,VWS V14.01,2013-01-10 03:00:00,
2013-01-09 22:02:00,58.0,52.9,30.36,ESE,119,0.0,0.0,83,0.00,,---,0.00,VWS V14.01,2013-01-10 03:02:00,
2013-01-09 22:07:00,57.9,52.5,30.36,ESE,119,0.0,0.0,82,0.00,,---,0.00,VWS V14.01,2013-01-10 03:07:00,
2013-01-09 22:12:00,57.8,52.3,30.36,ESE,119,0.0,0.0,82,0.00,,---,0.00,VWS V14.01,2013-01-10 03:12:00,
2013-01-09 22:17:00,57.7,52.2,30.36,ESE,119,0.0,0.0,82,0.00,,---,0.00,VWS V14.01,2013-01-10 03:17:00,
2013-01-09 22:22:00,57.4,52.0,30.36,ESE,119,0.0,0.0,82,0.00,,---,0.00,VWS V14.01,2013-01-10 03:22:00,
2013-01-09 22:27:00,57.1,51.7,30.37,ESE,119,0.0,0.0,82,0.00,,---,0.00,VWS V14.01,2013-01-10 03:27:00,
2013-01-09 22:30:00,56.9,51.5,30.37,ESE,119,0.0,0.0,82,0.00,,---,0.00,VWS V14.01,2013-01-10 03:30:00,
2013-01-09 22:32:00,56.9,51.5,30.37,ESE,119,0.0,0.0,82,0.00,,---,0.00,VWS V14.01,2013-01-10 03:32:00,
2013-01-09 22:37:00,56.8,51.4,30.36,ESE,119,0.0,0.0,82,0.00,,---,0.00,VWS V14.01,2013-01-10 03:37:00,
2013-01-09 22:42:00,56.5,51.1,30.36,ESE,119,0.0,0.0,82,0.00,,---,0.00,VWS V14.01,2013-01-10 03:42:00,
2013-01-09 22:47:00,56.4,51.3,30.36,ESE,119,0.0,0.0,83,0.00,,---,0.00,VWS V14.01,2013-01-10 03:47:00,
2013-01-09 22:52:00,56.5,51.4,30.36,ESE,119,0.0,0.0,83,0.00,,---,0.00,VWS V14.01,2013-01-10 03:52:00,
2013-01-09 22:57:00,56.6,51.5,30.36,ESE,119,0.0,0.0,83,0.00,,---,0.00,VWS V14.01,2013-01-10 03:57:00,
2013-01-09 23:00:00,56.6,51.5,30.36,ESE,119,0.0,0.0,83,0.00,,---,0.00,VWS V14.01,2013-01-10 04:00:00,
2013-01-09 23:02:00,56.6,51.5,30.36,ESE,119,0.0,0.0,83,0.00,,---,0.00,VWS V14.01,2013-01-10 04:02:00,
2013-01-09 23:07:00,56.6,51.5,30.36,ESE,119,0.0,0.0,83,0.00,,---,0.00,VWS V14.01,2013-01-10 04:07:00,
2013-01-09 23:12:00,56.5,51.4,30.36,ESE,119,0.0,0.0,83,0.00,,---,0.00,VWS V14.01,2013-01-10 04:12:00,
2013-01-09 23:17:00,56.5,51.4,30.36,ESE,119,0.0,0.0,83,0.00,,---,0.00,VWS V14.01,2013-01-10 04:17:00,
2013-01-09 23:22:00,56.5,51.4,30.36,ESE,119,0.0,0.0,83,0.00,,---,0.00,VWS V14.01,2013-01-10 04:22:00,
2013-01-09 23:27:00,56.3,51.2,30.36,ESE,119,0.0,0.0,83,0.00,,---,0.00,VWS V14.01,2013-01-10 04:27:00,
2013-01-09 23:30:00,56.2,51.1,30.36,ESE,119,0.0,0.0,83,0.00,,---,0.00,VWS V14.01,2013-01-10 04:30:00,
2013-01-09 23:32:00,56.2,51.1,30.36,ESE,119,0.0,0.0,83,0.00,,---,0.00,VWS V14.01,2013-01-10 04:32:00,
2013-01-09 23:37:00,56.0,50.9,30.36,ESE,119,0.0,0.0,83,0.00,,---,0.00,VWS V14.01,2013-01-10 04:37:00,
2013-01-09 23:42:00,56.0,50.9,30.36,ESE,119,0.0,0.0,83,0.00,,---,0.00,VWS V14.01,2013-01-10 04:42:00,
2013-01-09 23:47:00,56.1,51.3,30.36,ESE,119,0.0,0.0,84,0.00,,---,0.00,VWS V14.01,2013-01-10 04:47:00,
2013-01-09 23:52:00,56.4,51.6,30.36,ESE,119,0.0,0.0,84,0.00,,---,0.00,VWS V14.01,2013-01-10 04:52:00,
2013-01-09 23:57:00,56.7,51.9,30.36,ESE,119,0.0,0.0,84,0.00,,---,0.00,VWS V14.01,2013-01-10 04:57:00,